When you browse on this site, cookies collect data to enhance your experience and personalize the content and advertising you see.
Visit our Privacy Policy to learn more. By continuing to use the site, you agree to this use of cookies and data.
  • En España
  • Lista de países
  • Para 7 días
  • Temperatura del agua
  • El tiempo en el mapa
  • Informadores
  • user-avatar
    Iniciar sesión

    Tiempo cada hora Punakha

    Hoy, 24 Febrero, Lunes

    Tiempo Temperatura Precipitaciones Viento Presión Humedad
    00:00 +6°C° 0 mm 1 mps 584 mmHg 90%
    01:00 +5°C° 0.1 mm 1 mps 583 mmHg 89%
    02:00 +5°C° 0.1 mm 1 mps 583 mmHg 88%
    03:00 +5°C° 0.1 mm 1 mps 582 mmHg 87%
    04:00 +5°C° 0 mm 1 mps 582 mmHg 87%
    05:00 +3°C° 0 mm 2 mps 582 mmHg 86%
    06:00 +3°C° 0 mm 2 mps 582 mmHg 86%
    07:00 +6°C° 0 mm 1 mps 583 mmHg 79%
    08:00 +8°C° 0 mm 1 mps 584 mmHg 73%
    09:00 +10°C° 0 mm 1 mps 585 mmHg 67%
    10:00 +11°C° 0.1 mm 1 mps 585 mmHg 61%
    11:00 +13°C° 0.1 mm 2 mps 585 mmHg 56%
    12:00 +14°C° 0.1 mm 2 mps 586 mmHg 51%
    13:00 +14°C° 0.2 mm 2 mps 585 mmHg 52%
    14:00 +12°C° 0.2 mm 3 mps 584 mmHg 54%
    15:00 +12°C° 0.2 mm 3 mps 583 mmHg 55%
    16:00 +10°C° 0.5 mm 2 mps 582 mmHg 67%
    17:00 +9°C° 0.5 mm 1 mps 581 mmHg 80%
    18:00 +7°C° 0.5 mm 1 mps 581 mmHg 92%
    19:00 +7°C° 0.2 mm 1 mps 581 mmHg 91%
    20:00 +6°C° 0.2 mm 1 mps 581 mmHg 90%
    21:00 +6°C° 0.2 mm 1 mps 582 mmHg 89%
    22:00 +5°C° 0.1 mm 1 mps 582 mmHg 88%
    23:00 +5°C° 0.1 mm 1 mps 582 mmHg 87%

    Mañana, 25 Febrero, Martes

    Tiempo Temperatura Precipitaciones Viento Presión Humedad
    00:00 +5°C° 0.1 mm 1 mps 582 mmHg 86%
    01:00 +5°C° 0.1 mm 1 mps 582 mmHg 85%
    02:00 +4°C° 0.1 mm 1 mps 581 mmHg 84%
    03:00 +3°C° 0.1 mm 2 mps 581 mmHg 84%
    04:00 +3°C° 0 mm 2 mps 581 mmHg 81%
    05:00 +3°C° 0 mm 2 mps 581 mmHg 78%
    06:00 +2°C° 0 mm 2 mps 580 mmHg 75%
    07:00 +5°C° 0 mm 1 mps 582 mmHg 71%
    08:00 +7°C° 0 mm 1 mps 583 mmHg 68%
    09:00 +9°C° 0 mm 1 mps 584 mmHg 64%
    10:00 +10°C° 0.1 mm 1 mps 584 mmHg 63%
    11:00 +11°C° 0.1 mm 1 mps 584 mmHg 62%
    12:00 +12°C° 0.1 mm 2 mps 584 mmHg 61%
    13:00 +12°C° 0.3 mm 2 mps 583 mmHg 64%
    14:00 +12°C° 0.3 mm 2 mps 583 mmHg 66%
    15:00 +12°C° 0.3 mm 2 mps 582 mmHg 69%
    16:00 +9°C° 1.2 mm 2 mps 581 mmHg 78%
    17:00 +8°C° 1.2 mm 2 mps 581 mmHg 88%
    18:00 +6°C° 1.2 mm 2 mps 580 mmHg 97%
    19:00 +7°C° 1.2 mm 1 mps 581 mmHg 97%
    20:00 +7°C° 1.2 mm 1 mps 581 mmHg 97%
    21:00 +7°C° 1.2 mm 1 mps 582 mmHg 97%
    22:00 +6°C° 0.4 mm 1 mps 582 mmHg 96%
    23:00 +6°C° 0.4 mm 1 mps 582 mmHg 96%

    Pasado mañana, 26 Febrero, Miércoles

    Tiempo Temperatura Precipitaciones Viento Presión Humedad
    00:00 +6°C° 0.4 mm 1 mps 582 mmHg 95%
    01:00 +5°C° 0.2 mm 1 mps 581 mmHg 93%
    02:00 +5°C° 0.2 mm 1 mps 581 mmHg 91%
    03:00 +5°C° 0.2 mm 1 mps 580 mmHg 89%
    04:00 +5°C° 0.2 mm 1 mps 580 mmHg 91%
    05:00 +5°C° 0.2 mm 1 mps 580 mmHg 92%
    06:00 +5°C° 0.2 mm 1 mps 581 mmHg 93%
    07:00 +6°C° 0.5 mm 1 mps 581 mmHg 93%
    08:00 +6°C° 0.5 mm 1 mps 582 mmHg 94%
    09:00 +7°C° 0.5 mm 1 mps 582 mmHg 94%
    10:00 +7°C° 1.4 mm 1 mps 582 mmHg 95%
    11:00 +7°C° 1.4 mm 1 mps 581 mmHg 96%
    12:00 +7°C° 1.4 mm 1 mps 581 mmHg 96%
    13:00 +6°C° 1 mm 2 mps 580 mmHg 96%
    14:00 +7°C° 1 mm 2 mps 580 mmHg 96%
    15:00 +7°C° 1 mm 2 mps 579 mmHg 96%
    16:00 +7°C° 0.1 mm 1 mps 579 mmHg 96%
    17:00 +7°C° 0.1 mm 1 mps 580 mmHg 97%
    18:00 +5°C° 0.1 mm 0 mps 580 mmHg 98%
    19:00 +5°C° 0 mm 1 mps 580 mmHg 93%
    20:00 +4°C° 0 mm 1 mps 580 mmHg 89%
    21:00 +3°C° 0 mm 2 mps 580 mmHg 84%
    22:00 +2°C° 0 mm 2 mps 580 mmHg 82%
    23:00 +2°C° 0 mm 2 mps 579 mmHg 79%

    27 Febrero, Jueves

    Tiempo Temperatura Precipitaciones Viento Presión Humedad
    00:00 +1°C° 0 mm 2 mps 579 mmHg 77%
    01:00 0°C° 0 mm 3 mps 579 mmHg 76%
    02:00 0°C° 0 mm 3 mps 578 mmHg 76%
    03:00 0°C° 0 mm 3 mps 578 mmHg 75%
    04:00 0°C° 0 mm 3 mps 578 mmHg 75%
    05:00 0°C° 0 mm 3 mps 578 mmHg 75%
    06:00 0°C° 0 mm 3 mps 579 mmHg 75%
    07:00 +3°C° 0 mm 2 mps 580 mmHg 73%
    08:00 +7°C° 0 mm 1 mps 582 mmHg 71%
    09:00 +9°C° 0 mm 1 mps 584 mmHg 69%
    10:00 +11°C° 0.1 mm 1 mps 584 mmHg 67%
    11:00 +12°C° 0.1 mm 1 mps 584 mmHg 64%
    12:00 +13°C° 0.1 mm 2 mps 585 mmHg 61%
    13:00 +13°C° 0.1 mm 2 mps 585 mmHg 62%
    14:00 +13°C° 0.1 mm 2 mps 584 mmHg 62%
    15:00 +13°C° 0.1 mm 2 mps 584 mmHg 62%
    16:00 +11°C° 0.1 mm 1 mps 583 mmHg 70%
    17:00 +9°C° 0.1 mm 1 mps 582 mmHg 79%
    18:00 +6°C° 0.1 mm 1 mps 581 mmHg 88%
    19:00 +6°C° 0 mm 1 mps 581 mmHg 81%
    20:00 +4°C° 0 mm 2 mps 582 mmHg 75%
    21:00 +3°C° 0 mm 3 mps 582 mmHg 68%
    22:00 +3°C° 0 mm 3 mps 582 mmHg 67%
    23:00 +2°C° 0 mm 3 mps 582 mmHg 65%

    28 Febrero, Viernes

    Tiempo Temperatura Precipitaciones Viento Presión Humedad
    00:00 +1°C° 0 mm 4 mps 582 mmHg 64%
    01:00 +1°C° 0 mm 4 mps 582 mmHg 62%
    02:00 0°C° 0 mm 4 mps 581 mmHg 61%
    03:00 0°C° 0 mm 4 mps 581 mmHg 59%
    04:00 0°C° 0 mm 4 mps 580 mmHg 58%
    05:00 0°C° 0 mm 4 mps 580 mmHg 57%
    06:00 -1°C° 0 mm 4 mps 580 mmHg 56%
    07:00 +3°C° 0 mm 3 mps 582 mmHg 53%
    08:00 +7°C° 0 mm 2 mps 584 mmHg 50%
    09:00 +11°C° 0 mm 1 mps 585 mmHg 48%
    10:00 +12°C° 0 mm 1 mps 586 mmHg 47%
    11:00 +14°C° 0 mm 1 mps 586 mmHg 47%
    12:00 +15°C° 0 mm 2 mps 586 mmHg 46%
    13:00 +15°C° 0 mm 2 mps 585 mmHg 46%
    14:00 +15°C° 0 mm 2 mps 585 mmHg 46%
    15:00 +15°C° 0 mm 2 mps 584 mmHg 46%
    16:00 +12°C° 0.1 mm 1 mps 583 mmHg 59%
    17:00 +10°C° 0.1 mm 1 mps 582 mmHg 72%
    18:00 +6°C° 0.1 mm 0 mps 581 mmHg 85%
    19:00 +6°C° 0 mm 1 mps 581 mmHg 81%
    20:00 +5°C° 0 mm 2 mps 581 mmHg 78%
    21:00 +3°C° 0 mm 3 mps 582 mmHg 74%
    22:00 +3°C° 0 mm 3 mps 582 mmHg 72%
    23:00 +3°C° 0 mm 3 mps 581 mmHg 70%

    29 Febrero, Sábado

    Tiempo Temperatura Precipitaciones Viento Presión Humedad
    00:00 +2°C° 0 mm 3 mps 581 mmHg 68%
    01:00 +2°C° 0 mm 3 mps 581 mmHg 67%
    02:00 +2°C° 0 mm 3 mps 580 mmHg 65%
    03:00 +2°C° 0 mm 3 mps 580 mmHg 64%
    04:00 +1°C° 0 mm 3 mps 580 mmHg 63%
    05:00 +1°C° 0 mm 3 mps 580 mmHg 61%
    06:00 +1°C° 0 mm 3 mps 580 mmHg 60%
    07:00 +5°C° 0 mm 2 mps 581 mmHg 55%
    08:00 +9°C° 0 mm 1 mps 583 mmHg 50%
    09:00 +11°C° 0 mm 0 mps 585 mmHg 45%
    10:00 +13°C° 0 mm 1 mps 585 mmHg 44%
    11:00 +14°C° 0 mm 2 mps 585 mmHg 43%
    12:00 +16°C° 0 mm 2 mps 585 mmHg 43%
    13:00 +15°C° 0 mm 2 mps 584 mmHg 44%
    14:00 +15°C° 0 mm 2 mps 583 mmHg 46%
    15:00 +15°C° 0 mm 2 mps 583 mmHg 48%
    16:00 +13°C° 0.1 mm 2 mps 582 mmHg 60%
    17:00 +10°C° 0.1 mm 1 mps 581 mmHg 72%
    18:00 +8°C° 0.1 mm 1 mps 580 mmHg 84%
    19:00 +8°C° 0.1 mm 1 mps 580 mmHg 82%
    20:00 +7°C° 0.1 mm 1 mps 581 mmHg 81%
    21:00 +6°C° 0.1 mm 2 mps 581 mmHg 80%
    22:00 +6°C° 0.1 mm 2 mps 581 mmHg 78%
    23:00 +6°C° 0.1 mm 2 mps 581 mmHg 77%
    Mostrar más